Temperature
15 15 15 15 15 15 15 15 15 16 16 15 15 15 15 15 15 15 14 15 15 15 15 15 15 15 15 15 15 15 15 15 15 15 15 15 15 14
15 15 15 15 15 15 15 15 15 15 16 15 15 15 14 14 15 14 14 14 15 15 15 15 15 15 15 15 15 15 14 14 14 14 14 14 14 14
15 15 15 15 15 15 15 15 15 15 15 15 15 14 14 14 14 14 14 14 14 14 14 14 14 14 14 14 14 14 14 14 14 14 14 14 14 14
14 14 14 14 14 14 14 14 14 14 14 14 14 14 14 14 14 14 14 14 14 14 14 14 14 14 14 14 14 14 14 14 14 14 14 14 14 14
14 14 14 14 14 14 14 14 14 14 14 14 14 14 14 14 13 13 13 13 13 13 14 13 14 14 14 14 14 14 14 14 14 14 14 14 14 14
14 14 13 13 13 13 13 13 13 13 14 14 14 14 13 13 13 13 13 13 13 13 13 13 13 13 13 13 13 13 13 13 13 13 13 13 14 14
13 13 13 13 13 13 13 13 13 13 13 14 13 13 13 13 13 13 13 13 13 12 13 13 13 13 13 13 13 13 13 13 13 13 13 13 13 13
13 13 13 13 13 13 13 13 13 13 13 13 13 13 12 12 12 12 12 12 12 12 12 12 12 12 12 12 12 13 13 13 13 13 13 13 13 13
13 13 13 13 13 13 13 13 13 13 13 12 12 12 12 12 12 12 12 12 12 12 12 12 12 12 12 12 12 12 12 12 12 12 12 12 13 13
12 12 12 12 12 12 12 12 12 12 12 12 12 12 12 12 12 12 11 11 12 12 11 11 12 12 12 12 12 12 12 12 12 12 12 12 12 12
12 12 12 12 12 12 12 12 12 12 12 12 12 12 12 12 12 11 11 11 12 12 11 11 11 11 11 12 12 12 12 12 12 12 12 12 12 12
12 12 12 12 12 12 11 11 11 11 11 11 11 11 11 11 11 11 11 11 11 11 11 11 11 11 11 11 11 11 11 11 11 11 11 11 11 11
11 11 11 11 12 11 11 11 11 11 11 11 11 11 11 11 11 11 11 11 11 11 11 11 11 11 11 11 11 11 11 11 11 11 11 11 11 11
11 11 11 11 11 11 11 11 11 11 11 11 11 11 11 11 11 11 11 11 11 10 10 10 10 10 11 11 11 11 11 11 11 11 11 11 11 11
11 11 11 11 11 11 10 10 10 10 10 11 11 11 11 10 10 10 10 10 10 10 10 10 10 10 10 10 10 10 11 10 10 10 10 10 10 10
10 10 10 10 10 10 10 10 10 10 10 10 10 10 10 10 10 10 10 10 10 10 10 10 9 9 10 10 10 10 10 10 10 10 10 10 10 10
10 10 10 10 10 10 10 10 9 9 9 9 10 10 10 10 10 10 9 9 10 10 9 9 9 9 9 9 10 10 10 10 10 10 10 10 10 10
10 10 10 10 10 10 9 9 9 9 9 9 9 9 9 9 9 9 9 9 9 9 9 9 9 9 9 9 9 9 9 9 9 9 9 9 9 9
10 10 10 9 9 9 9 9 9 9 9 9 9 9 9 9 9 9 9 9 9 9 9 9 9 9 9 9 9 9 9 9 9 9 9 9 9 9
10 9 9 9 9 9 9 9 8 8 8 8 8 8 8 8 9 9 9 8 8 8 8 8 8 8 8 9 9 9 9 9 9 9 9 9 9 9
9 9 9 9 9 8 8 8 8 8 8 8 8 8 8 8 8 8 8 8 8 8 8 8 8 8 8 8 9 9 8 9 9 8 8 8 9 8
9 9 9 8 8 8 8 8 8 8 8 8 8 8 8 8 8 8 8 8 8 8 8 8 8 8 8 8 8 8 8 8 8 8 8 8 8 8
9 8 8 8 8 8 8 7 7 7 7 7 7 7 7 7 7 8 8 8 8 8 8 8 8 8 8 8 8 8 8 8 8 8 8 8 8 8
Wind_Speed
3 3 3 3 3 3 3 4 4 4 4 3 2 2 3 3 3 5 5 6 8 8 9 9 9 9 8 9 10 11 11 12 12 12 12 12 12 12
3 3 3 3 3 3 3 4 4 5 4 2 2 2 2 3 3 5 5 6 9 9 9 9 8 8 9 9 10 10 11 11 11 12 12 12 12 12
3 3 3 4 4 3 3 3 3 4 5 4 2 1 2 3 2 4 5 5 5 9 9 9 8 8 8 9 9 10 11 11 10 10 11 12 13 13
4 4 4 3 3 4 3 4 3 4 5 4 3 2 2 3 3 4 3 3 3 5 8 8 8 8 8 8 8 9 10 10 10 10 10 11 12 12
4 4 4 3 4 3 4 3 3 3 3 4 3 2 2 2 2 3 2 2 3 2 6 8 8 9 9 8 8 9 9 10 10 10 10 10 10 10
4 4 3 3 3 3 3 3 3 3 3 4 3 2 2 2 2 3 2 2 3 2 1 3 6 10 10 9 8 8 8 9 8 9 9 9 9 10
4 3 3 2 4 4 4 4 4 4 3 3 3 2 2 2 2 3 3 2 3 2 3 3 3 4 6 9 8 8 8 8 8 7 7 8 8 9
4 4 3 2 1 1 3 4 5 5 4 4 3 3 3 4 3 3 3 3 3 1 3 3 3 3 3 3 6 8 9 9 8 7 7 7 8 9
4 4 4 3 3 3 2 2 3 4 5 5 5 5 4 4 4 4 3 4 4 3 3 4 3 3 3 2 8 8 8 9 8 8 8 8 8 9
4 4 3 3 3 4 4 4 4 3 4 4 5 5 5 4 4 5 5 5 5 4 3 4 4 4 4 2 8 9 9 8 8 8 7 7 8 9
4 3 3 3 3 4 4 5 5 5 3 3 3 3 3 4 4 4 4 4 4 4 3 4 4 4 4 4 4 10 10 9 8 8 7 6 7 8
3 3 1 3 3 4 5 5 6 6 5 4 4 5 5 4 5 5 5 5 4 4 2 3 4 3 4 3 2 3 5 7 9 9 8 7 6 5
4 4 3 3 3 4 6 6 6 7 6 6 5 4 3 3 4 4 5 5 5 4 3 3 4 4 4 3 3 3 3 3 4 5 8 8 8 5
4 4 4 3 4 6 5 5 6 7 5 5 4 4 3 3 3 3 3 4 4 5 4 4 4 4 4 4 3 3 3 3 3 2 3 7 8 8
4 4 4 4 6 5 4 5 5 5 4 4 4 4 3 2 2 2 2 2 3 4 4 5 5 5 5 5 4 3 3 2 2 2 2 2 3 3
4 3 4 5 5 4 4 3 4 4 4 4 4 4 3 2 2 2 3 3 3 3 3 4 5 5 5 5 4 4 3 3 3 2 2 2 3 3
5 4 4 3 4 4 4 3 3 3 3 4 4 3 3 3 3 3 2 3 3 3 3 2 3 3 3 4 5 4 4 3 3 2 3 3 3 3
5 4 4 4 5 5 5 4 4 3 4 4 4 4 3 3 3 3 3 3 3 3 3 3 2 2 3 2 3 4 4 4 3 3 4 4 3 3
4 4 4 4 5 5 5 5 5 4 4 4 4 4 4 4 3 3 2 3 3 3 3 3 3 3 4 4 3 3 4 4 3 3 4 4 3 2
4 4 4 5 5 5 5 5 5 5 4 4 4 4 4 4 4 3 3 3 3 3 3 2 3 3 5 5 4 3 4 4 4 4 4 3 2 1
4 4 4 5 5 5 5 5 5 5 5 5 5 5 4 4 4 4 4 3 3 3 3 3 3 4 4 3 4 3 3 3 2 3 4 4 4 4
5 5 5 5 5 5 5 5 5 5 5 5 5 5 5 5 5 5 4 4 3 3 4 3 2 3 3 3 4 4 3 3 4 3 2 3 4 4
5 5 5 5 5 5 5 6 6 5 5 5 5 5 5 5 5 4 4 4 4 3 3 3 2 2 3 3 4 3 4 4 3 3 2 3 5 4
Wind_Direction
299 279 276 287 289 281 276 275 272 272 271 251 238 239 241 232 217 231 234 204 209 218 223 228 228 226 223 223 221 220 222 224 223 221 221 221 221 222
305 303 290 285 283 282 274 272 274 272 273 270 268 263 266 251 214 235 235 204 205 213 220 223 223 224 225 225 224 222 221 222 222 221 221 221 220 222
306 294 293 301 296 287 280 282 277 269 265 273 277 262 243 258 259 252 241 231 217 198 210 217 219 222 222 223 225 224 220 219 218 219 222 223 223 223
306 307 299 295 296 295 294 286 283 276 263 266 274 270 257 249 249 253 251 249 250 185 194 204 208 214 217 219 221 222 219 218 217 218 221 223 225 226
297 301 303 300 294 301 294 295 288 278 267 261 267 279 266 263 262 254 257 267 267 198 194 200 205 209 213 216 217 220 219 217 217 217 220 220 221 223
295 296 296 301 299 298 290 290 288 281 268 257 260 267 264 266 264 259 268 269 279 282 271 237 212 208 207 205 209 215 215 216 218 218 218 220 221 223
299 301 303 325 339 319 310 314 297 279 273 266 263 272 280 277 271 269 277 283 278 290 291 268 238 228 213 204 204 206 207 208 207 211 215 218 221 222
301 303 299 286 330 328 334 327 313 285 281 276 266 269 275 275 271 266 264 269 277 281 282 282 275 260 249 230 178 191 201 202 203 208 213 220 225 224
306 304 305 331 331 317 322 279 283 290 284 277 276 273 272 264 261 261 258 269 278 276 281 281 277 270 255 197 152 174 190 195 200 207 212 219 225 224
308 301 304 318 333 332 313 309 300 287 266 261 273 276 275 278 259 256 260 255 262 249 244 264 266 268 268 232 160 172 184 191 200 207 213 221 226 227
311 312 307 310 9 342 307 305 306 298 261 236 258 274 300 281 264 258 253 251 256 247 229 246 262 272 266 249 180 175 185 190 199 206 212 219 228 233
306 304 359 340 353 325 297 295 295 300 304 291 264 250 252 248 233 244 250 250 260 265 235 238 257 268 264 250 235 192 195 195 201 207 207 208 210 226
307 308 343 42 345 313 297 296 299 298 290 284 281 277 263 253 243 240 248 256 262 267 249 238 260 262 263 262 249 236 227 219 208 214 208 198 193 213
308 316 343 11 316 295 291 305 298 289 281 287 286 286 280 276 268 262 255 266 274 277 266 257 261 261 263 264 255 244 236 227 225 229 216 188 193 202
312 334 318 294 287 282 258 273 281 284 290 292 292 293 294 296 297 286 262 244 257 264 250 243 250 249 251 255 257 252 248 239 230 232 215 214 212 215
301 290 254 252 264 288 294 285 286 294 298 295 292 295 303 295 279 278 274 268 267 267 246 236 244 254 248 247 245 246 245 237 227 229 224 230 224 224
306 294 299 311 312 315 314 313 307 304 296 298 298 294 290 290 283 285 288 279 267 266 267 254 232 236 259 264 243 242 240 236 224 214 223 232 233 229
288 296 305 311 314 316 317 316 310 309 308 301 300 296 293 280 271 269 272 276 278 272 266 254 238 238 244 258 279 250 245 241 226 210 228 234 236 228
268 292 304 311 312 313 313 313 313 312 306 296 292 289 284 280 277 272 267 266 270 274 272 252 236 240 244 247 252 258 255 250 239 232 234 242 252 250
277 293 301 305 305 308 309 310 310 311 308 299 291 287 281 280 278 273 268 269 266 268 266 262 250 248 252 261 262 253 244 247 242 241 244 242 245 188
298 298 298 300 302 305 304 299 298 301 304 300 297 295 292 286 280 278 278 270 265 265 263 263 260 260 266 260 248 236 222 215 246 257 251 245 247 247
295 295 299 302 301 301 299 296 293 295 298 296 300 299 295 292 286 278 273 266 258 257 261 262 247 249 254 255 253 248 236 208 198 191 242 281 264 253
309 307 306 300 297 298 299 299 300 301 304 304 304 301 296 294 290 284 278 272 269 267 263 260 251 253 259 255 253 254 244 229 221 214 217 217 219 215
Height
1515 1514 1513 1513 1512 1511 1511 1510 1510 1508 1508 1508 1508 1508 1508 1508 1508 1508 1509 1509 1509 1510 1510 1511 1512 1513 1514 1515 1516 1517 1518 1519 1520 1522 1523 1524 1525 1526
1512 1511 1511 1511 1510 1510 1509 1509 1508 1508 1507 1506 1506 1506 1505 1506 1505 1505 1506 1505 1506 1506 1506 1507 1507 1508 1509 1510 1511 1512 1514 1515 1516 1517 1518 1520 1521 1522
1511 1510 1509 1509 1508 1508 1507 1507 1506 1506 1505 1504 1504 1503 1502 1502 1502 1502 1503 1503 1503 1503 1503 1503 1503 1504 1505 1506 1507 1508 1509 1511 1512 1513 1514 1515 1516 1518
1510 1508 1507 1507 1506 1506 1505 1504 1504 1503 1503 1501 1501 1501 1500 1500 1499 1499 1500 1500 1500 1500 1499 1499 1499 1499 1500 1501 1502 1504 1505 1506 1507 1508 1510 1511 1512 1513
1508 1507 1506 1505 1504 1504 1503 1502 1502 1501 1501 1500 1499 1498 1497 1497 1497 1497 1497 1496 1497 1497 1496 1496 1496 1496 1497 1497 1498 1499 1500 1502 1503 1504 1505 1506 1508 1509
1506 1505 1504 1503 1502 1501 1501 1500 1500 1499 1498 1497 1497 1496 1495 1494 1494 1494 1494 1494 1494 1494 1493 1493 1493 1493 1493 1493 1494 1495 1496 1497 1498 1500 1501 1502 1503 1504
1504 1503 1502 1501 1500 1499 1499 1498 1497 1497 1496 1495 1494 1494 1493 1492 1492 1492 1491 1491 1490 1490 1490 1490 1490 1490 1490 1490 1490 1491 1492 1493 1494 1495 1496 1497 1498 1500
1502 1501 1500 1499 1498 1497 1496 1495 1494 1494 1493 1493 1492 1491 1490 1490 1489 1489 1489 1488 1488 1488 1487 1488 1488 1487 1487 1487 1486 1487 1488 1489 1490 1490 1491 1492 1494 1495
1500 1499 1499 1498 1496 1495 1493 1492 1491 1490 1490 1489 1489 1488 1488 1487 1486 1486 1486 1485 1485 1484 1485 1485 1485 1485 1484 1484 1483 1484 1485 1485 1486 1486 1487 1488 1489 1490
1498 1497 1496 1495 1494 1492 1491 1490 1489 1488 1487 1486 1485 1485 1484 1483 1483 1483 1482 1482 1481 1481 1481 1482 1482 1482 1482 1481 1481 1481 1481 1482 1482 1483 1484 1484 1485 1486
1496 1495 1493 1492 1491 1489 1488 1487 1486 1485 1484 1482 1482 1481 1480 1479 1479 1479 1479 1479 1479 1478 1478 1478 1478 1479 1479 1479 1478 1478 1478 1479 1479 1480 1480 1481 1481 1482
1494 1493 1491 1490 1488 1487 1485 1484 1482 1482 1481 1479 1478 1477 1476 1476 1475 1475 1475 1476 1476 1476 1475 1475 1475 1475 1476 1476 1475 1475 1475 1475 1476 1476 1477 1477 1478 1479
1493 1492 1490 1488 1486 1484 1482 1481 1479 1478 1477 1475 1475 1474 1473 1472 1472 1471 1471 1472 1472 1472 1472 1472 1472 1472 1472 1472 1472 1472 1472 1472 1473 1473 1474 1474 1475 1476
1490 1490 1488 1485 1483 1481 1479 1478 1476 1474 1473 1472 1471 1470 1470 1469 1469 1468 1468 1468 1468 1468 1468 1468 1469 1469 1469 1469 1469 1469 1469 1470 1470 1471 1471 1471 1472 1473
1488 1487 1485 1483 1480 1479 1477 1475 1473 1472 1470 1469 1468 1467 1467 1466 1466 1465 1465 1465 1464 1464 1465 1465 1465 1466 1466 1466 1466 1466 1466 1467 1467 1468 1468 1468 1469 1469
1486 1484 1483 1481 1479 1477 1475 1473 1471 1469 1468 1467 1466 1465 1464 1464 1463 1463 1462 1462 1462 1462 1462 1462 1462 1462 1462 1462 1463 1463 1463 1464 1464 1465 1465 1466 1466 1466
1484 1483 1482 1480 1478 1476 1474 1471 1469 1467 1466 1465 1464 1463 1462 1461 1461 1461 1460 1460 1459 1459 1458 1458 1458 1458 1459 1460 1460 1460 1460 1461 1461 1461 1462 1463 1463 1463
1483 1482 1480 1478 1476 1474 1472 1470 1468 1466 1464 1463 1462 1462 1461 1460 1459 1458 1458 1458 1457 1457 1456 1456 1456 1456 1456 1457 1457 1457 1458 1458 1458 1458 1459 1460 1460 1461
1481 1480 1478 1477 1475 1473 1471 1469 1466 1465 1463 1462 1461 1460 1459 1458 1457 1456 1456 1455 1455 1454 1454 1454 1454 1454 1454 1454 1454 1454 1455 1455 1456 1456 1457 1457 1457 1458
1479 1477 1476 1474 1473 1471 1469 1467 1465 1463 1462 1460 1459 1458 1457 1456 1455 1455 1454 1453 1453 1452 1452 1451 1451 1451 1452 1452 1452 1452 1452 1452 1453 1453 1454 1454 1454 1454
1476 1475 1474 1472 1471 1469 1467 1465 1463 1461 1460 1458 1457 1456 1455 1454 1453 1453 1452 1451 1451 1450 1449 1449 1449 1449 1450 1450 1450 1450 1450 1450 1450 1450 1451 1451 1451 1451
1474 1473 1471 1470 1468 1466 1464 1463 1461 1459 1457 1456 1454 1453 1452 1452 1451 1450 1450 1449 1448 1448 1447 1447 1447 1447 1448 1448 1447 1447 1447 1447 1447 1447 1447 1448 1448 1448
1471 1470 1468 1467 1465 1463 1462 1460 1458 1457 1455 1453 1452 1451 1450 1449 1448 1448 1447 1447 1446 1445 1445 1445 1445 1444 1444 1445 1445 1445 1444 1444 1445 1445 1445 1444 1445 1445